Regional Weather Roundup
Issued by NWS New Orleans/Baton Rouge, LA

Home | Current Version | Previous Version | Text Only | Print | Product List | Glossary On
Versions: 1 2 3 4 5 6 7 8 9 10 11 12 13 14 15 16 17 18 19 20 21 22 23 24 25 26 27 28 29 30 31 32 33 34 35 36 37 38 39 40 41 42 43 44 45 46 47 48 49 50
963
ASUS44 KLIX 010110
RWRLIX
NEW ORLEANS REGIONAL WEATHER ROUNDUP
NATIONAL WEATHER SERVICE NEW ORLEANS LA
700 PM CST SAT JAN 31 2015

NOTE: "FAIR" INDICATES FEW OR NO CLOUDS BELOW 12,000 FEET WITH NO
      SIGNIFICANT WEATHER AND/OR OBSTRUCTIONS TO VISIBILITY.
      SKY/WX - SKY CONDITION AND SIGNIFICANT WEATHER.
      TMP - AIR TEMPERATURE.     DP    - DEWPOINT TEMPERATURE.
      RH  - RELATIVE HUMIDITY.   PRES  - PRESSURE.
      HI  - HEAT INDEX.          WCI   - WIND CHILL INDEX.

*  THESE STATIONS ARE NOT NWS OR FAA STATIONS AND ARE NOT UNDER
   NWS QUALITY CONTROL.

LAZ038-040-048-061>063-065>067-069-010200-
SOUTHEAST LOUISIANA

CITY           SKY/WX    TMP DP  RH WIND       PRES   REMARKS
N.O. AUDUBON     N/A     58  52  81 MISG        N/A
N.O. INTL ARPT MOCLDY    56  49  77 E9        30.17F
N.O. LAKEFRONT MOCLDY    57  50  77 E14       30.18F
N.O. DOWNTOWN* NOT AVBL
SLIDELL        CLOUDY    53  47  79 E5        30.19F
BATON ROUGE    PTCLDY    54  47  77 E13       30.16S
BOOTHVILLE     MOCLDY    59  53  80 E7        30.18S
BELLE CHASSE   MOCLDY    56  48  74 E8        30.17S
BOGALUSA*        N/A     56  46  67 SE6       30.22S
GALLIANO*      MOCLDY    59  54  81 NE5       30.17S
NEW ROADS*       N/A     55  47  74 E10       30.15S
GONZALES*        N/A     54  50  86 E5        30.16S
HAMMOND*       MOCLDY    55  46  71 E3        30.19F
HOUMA*         MOCLDY    57  52  82 E8        30.15S
PORT FOURCHON* CLOUDY    63  57  82 E12G17    30.18S

$$

MSZ070-080>082-010200-
SOUTHERN MISSISSIPPI

CITY           SKY/WX    TMP DP  RH WIND       PRES   REMARKS
MCCOMB         CLOUDY    51  37  58 SE5       30.18S
GULFPORT       MOCLDY    55  46  71 E7        30.21S
BILOXI         MOCLDY    54  47  76 E5        30.22R
PASCAGOULA     MOCLDY    48  44  86 CALM      30.22S
STENNIS ARPT*  CLEAR     54  45  71 E5        30.21R

$$

COASTAL OBSERVATIONS
LAKE AND NEARSHORE STATIONS

STATION/POSITION TIME  TEMP    WIND        PRES    WAVE
                       AIR SEA DIR/SP/G            HT/PER
                 (UTC) (F)     (DEG/KT/KT) (MB)    (FT/S)
PASCAGOULA       0100   57     100/ 10/ 15 1022.6
WAVELAND YACHT   0100   55      90/ 10/ 12 1021.9
GRAND ISLE       0100   62 63   90/  9/ 15 1021.7
SOUTHWEST PASS   0100   63 48  110/ 18/ 21 1021.6
NEW CANAL        0100   56 56   80/  8/ 10 1022.1
SHELL BEACH      0100   57 57   70/ 10/ 11 1022.3

OFFSHORE STATIONS

STATION/POSITION TIME  TEMP    WIND        PRES    WAVE
                       AIR SEA DIR/SP/G            HT/PER
                 (UTC) (F)     (DEG/KT/KT) (MB)    (FT/S)
64 S DAUPHIN ISL 0031   63 69  110/ 17/ 21 1022.3    5/ 6

$$




USA.gov is the U.S. government's official web portal to all federal, state and local government web resources and services.